Theta_e
301 302 303 303 303 303 304 304 304 305 305 306 307 308 310 312 319 326 335 344 348 348 348 351 351 349 347 343 344 343 342 340 338 338 338 337 337 336 335 332 330 330 329
300 302 302 303 302 302 304 303 302 303 302 304 304 305 305 307 311 315 321 328 337 344 346 347 350 350 349 346 344 345 345 343 341 338 338 338 339 337 334 333 331 329 329
301 301 302 301 301 302 303 303 302 302 302 304 302 304 306 305 308 311 315 321 329 337 341 343 346 348 348 348 344 346 346 343 341 339 337 337 339 337 334 332 331 330 330
301 300 301 301 301 302 302 301 301 300 300 300 299 301 302 305 306 304 307 311 315 319 328 338 342 346 347 347 346 346 345 345 342 340 338 338 338 336 335 333 331 331 330
302 299 300 300 301 300 300 300 300 300 298 299 301 300 301 303 302 303 304 308 310 311 316 327 336 341 344 345 346 345 346 345 344 341 340 341 338 335 335 334 332 331 330
300 298 298 299 300 299 298 299 297 299 298 298 302 302 300 300 299 299 299 304 304 305 309 312 316 332 341 342 346 346 346 344 344 342 340 340 338 336 334 336 334 332 331
299 297 297 298 299 298 297 298 297 297 296 297 296 295 296 296 295 297 301 302 301 302 307 313 315 319 333 341 342 345 346 344 344 342 338 338 338 336 334 334 334 333 331
298 297 297 296 297 296 296 295 295 294 296 296 293 292 289 292 294 297 298 299 298 302 303 306 313 315 314 333 334 339 340 346 345 343 339 338 339 337 336 335 333 333 332
298 297 296 296 295 295 294 294 294 293 292 294 295 293 288 287 293 294 296 296 297 299 301 306 313 313 312 310 333 335 336 340 345 345 340 338 339 339 337 335 334 333 332
295 296 296 295 294 294 294 294 297 294 293 292 293 297 295 294 291 290 295 296 298 298 299 300 304 311 311 310 313 334 336 337 339 343 343 339 339 339 338 336 334 333 332
295 296 295 295 294 294 294 294 294 294 293 292 292 292 293 294 293 292 290 294 298 299 299 299 301 308 311 311 312 314 336 336 337 339 341 341 340 340 339 337 335 333 333
294 295 296 295 294 294 294 295 294 293 293 293 294 294 293 293 292 292 293 294 294 296 298 298 301 307 309 310 312 314 316 336 336 337 338 339 341 341 340 339 337 335 334
293 293 294 294 294 294 295 294 293 293 293 293 292 294 294 295 297 298 296 293 292 296 297 300 301 305 308 310 310 312 314 332 335 336 337 337 339 339 340 339 338 336 334
293 294 294 294 295 295 295 294 293 294 293 293 293 293 295 296 299 299 296 295 291 294 296 296 301 302 306 309 311 315 313 322 333 335 336 336 336 337 338 339 339 337 334
295 294 294 294 295 295 295 294 293 293 293 293 294 294 295 297 298 298 299 298 295 291 291 296 298 301 307 310 313 313 315 319 333 333 333 333 335 335 337 338 338 336 334
293 294 293 294 294 294 294 293 293 293 293 294 295 295 296 297 297 299 299 300 299 296 292 296 297 300 305 311 311 312 313 319 331 333 332 330 332 334 335 336 334 333 331
292 293 294 294 294 293 293 292 292 293 292 293 294 295 296 297 297 298 300 300 299 298 294 298 300 303 305 307 309 312 314 321 330 333 332 329 330 331 332 331 331 330 328
292 293 293 293 293 293 293 292 292 293 293 293 294 294 295 298 297 299 300 300 299 299 298 297 300 302 305 308 309 312 314 328 330 332 332 330 328 328 328 328 326 326 324
291 292 293 292 293 293 293 293 293 294 294 294 294 294 295 296 296 298 300 299 300 302 302 301 301 306 306 307 307 312 313 327 329 329 330 329 328 327 326 324 323 321 320
291 291 292 292 293 293 294 294 294 293 294 295 295 296 297 297 297 299 301 301 302 304 305 304 303 305 306 307 309 311 315 325 325 328 329 328 328 326 324 323 321 318 316
291 291 291 292 292 293 295 294 295 295 294 295 296 297 298 300 305 305 302 302 302 303 305 304 305 305 305 304 305 310 318 322 324 325 324 325 325 323 322 323 319 317 314
290 290 291 291 291 294 300 302 302 297 296 296 296 297 297 301 302 306 306 307 306 306 306 305 305 304 304 307 310 309 316 318 316 324 321 320 323 320 319 318 318 316 314
289 289 289 290 290 290 300 303 303 298 298 297 298 296 296 299 302 301 304 306 308 310 312 310 306 307 307 310 311 311 316 318 317 320 320 315 319 316 316 315 316 315 314
288 289 289 290 289 291 301 302 302 294 293 294 295 296 296 298 300 300 300 303 304 306 308 312 310 312 313 313 313 318 318 319 318 320 320 312 316 312 311 312 315 314 313
288 288 289 289 288 289 299 302 299 293 293 293 295 296 297 298 302 304 302 302 304 306 312 315 316 316 316 316 315 317 316 313 312 315 317 312 311 307 306 311 312 313 311
289 290 290 289 292 291 297 300 299 294 293 295 297 296 300 299 303 305 303 303 303 305 311 314 315 315 316 316 317 317 316 313 312 310 312 309 308 306 303 305 309 309 308
Wind_Speed
4 3 4 4 4 4 4 5 5 6 7 8 7 7 8 7 7 6 6 15 15 16 18 21 19 19 20 18 17 18 18 18 18 16 15 16 13 15 12 11 10 9 9
3 4 4 4 4 4 4 4 4 5 5 6 8 9 6 7 9 9 7 8 20 19 19 18 22 20 19 21 19 18 17 18 18 16 16 15 14 15 12 12 11 10 10
4 4 4 4 3 3 5 5 5 5 5 6 7 7 7 8 7 10 9 9 11 17 19 21 22 23 21 22 22 19 19 21 19 18 17 16 17 15 14 13 12 12 10
3 3 3 3 3 4 3 3 3 4 4 4 4 5 6 7 10 10 9 9 9 10 16 21 24 24 22 21 24 21 21 22 21 19 19 19 17 15 16 14 13 12 11
2 2 1 3 2 2 2 2 2 2 3 4 5 5 5 6 10 9 8 11 12 11 11 20 24 24 22 24 24 25 23 23 22 21 19 18 18 17 17 16 14 13 12
2 1 1 2 2 1 2 1 1 2 1 2 4 3 5 4 4 10 7 9 8 13 12 14 12 14 22 28 26 27 26 25 24 22 21 19 19 18 18 17 16 14 12
3 1 2 2 1 1 2 2 1 1 3 2 2 4 4 3 5 4 9 10 12 11 11 12 9 9 12 25 25 27 29 28 27 24 24 22 20 20 20 18 16 15 13
4 3 2 3 3 2 2 3 1 1 2 1 2 2 5 6 3 7 3 5 12 7 10 14 14 10 11 12 15 24 26 27 28 27 25 23 21 20 20 19 18 16 14
3 3 3 3 3 2 2 3 3 3 2 3 0 1 5 4 14 2 6 6 7 9 8 10 11 11 11 12 17 18 24 28 27 27 26 24 22 22 21 21 19 17 15
3 3 2 2 3 1 2 2 2 2 2 4 2 3 4 5 7 15 10 9 9 9 10 9 12 11 10 10 22 18 24 29 28 26 26 25 23 22 22 21 20 18 17
3 3 2 2 3 1 3 4 3 3 2 2 3 2 3 4 4 4 14 12 11 9 9 10 12 11 9 9 10 19 21 28 27 28 26 25 25 24 23 22 21 20 16
3 4 3 2 3 3 4 4 4 5 5 4 3 4 4 5 7 4 9 12 14 16 12 11 11 10 8 7 15 24 30 28 28 27 25 25 24 24 24 23 22 20 18
3 5 3 4 3 5 6 5 5 6 6 4 6 5 5 6 6 7 8 11 15 14 12 12 11 10 9 7 11 21 23 29 27 28 26 24 24 23 22 22 22 21 19
5 5 6 6 7 7 6 6 4 5 6 6 8 6 7 7 7 7 7 8 16 14 12 19 10 7 9 7 12 21 14 26 28 30 28 25 23 22 21 22 21 20 18
4 6 6 6 7 6 6 6 5 7 6 6 7 8 8 8 7 7 7 8 13 16 14 13 12 8 8 7 12 9 12 24 34 31 29 26 23 23 21 20 20 19 18
6 6 6 6 6 6 7 7 5 7 7 6 7 8 10 8 8 8 7 10 10 14 17 11 11 11 12 8 11 12 12 26 30 31 28 25 23 23 20 18 18 18 17
6 6 6 6 7 7 7 6 7 8 8 9 9 10 12 12 9 9 9 11 12 11 14 14 12 11 12 11 9 10 8 15 17 32 30 27 25 22 20 17 16 18 17
5 6 6 6 7 7 7 7 8 9 9 9 11 9 12 9 12 12 10 12 13 15 14 17 12 10 14 6 11 10 8 11 11 27 30 28 26 22 21 18 18 17 17
6 6 6 7 7 7 7 7 8 10 10 10 10 10 12 12 12 11 12 13 14 14 14 9 10 7 3 2 8 10 7 12 11 26 29 29 25 25 24 20 18 17 16
6 7 6 6 6 7 7 7 8 9 9 10 10 10 12 13 14 13 12 16 17 13 11 10 9 5 3 2 6 8 12 10 11 14 20 22 25 26 24 22 19 17 15
6 5 5 6 6 6 6 7 8 8 9 9 10 10 11 15 25 23 13 16 19 17 7 7 7 5 6 6 9 6 9 11 13 13 12 12 13 12 14 21 17 19 16
5 4 5 6 7 6 16 21 16 10 7 8 10 9 10 18 18 26 27 32 27 15 10 7 9 10 11 11 8 6 6 12 12 12 14 10 11 10 10 9 18 19 17
3 5 6 6 7 7 18 20 21 9 7 7 9 10 11 10 18 15 23 30 26 27 20 9 10 9 8 6 4 10 12 15 6 12 15 9 10 9 8 9 21 20 18
5 5 6 7 6 8 18 19 19 5 7 8 10 10 11 12 14 19 18 18 19 16 14 9 11 9 9 5 6 11 16 14 11 11 14 8 9 7 6 6 20 19 18
4 5 6 7 7 7 16 17 15 6 6 8 10 9 8 13 21 29 20 19 18 16 12 15 19 18 15 14 9 7 14 13 10 9 11 7 6 6 4 6 8 18 17
4 4 6 6 10 6 13 14 17 7 7 8 8 6 15 18 27 28 20 17 18 14 14 7 12 12 14 10 10 10 13 14 13 8 10 8 10 6 4 1 6 7 8
Wind_Direction
41 19 19 22 19 13 20 11 9 6 4 359 3 359 346 346 347 349 331 302 284 290 280 270 259 229 212 211 211 214 209 212 212 211 207 200 204 181 184 195 189 187 178
55 39 27 21 20 16 17 21 14 8 357 359 357 353 340 345 343 345 339 328 324 307 294 283 259 254 223 213 212 214 214 212 209 209 208 204 194 178 184 192 192 198 191
61 48 29 19 0 7 24 18 9 8 9 358 349 346 355 349 349 344 342 345 332 325 308 300 276 258 238 217 214 212 210 211 209 203 212 209 201 186 182 190 194 199 202
78 53 23 343 346 13 21 12 16 359 1 359 339 333 345 348 343 341 339 330 333 328 324 310 294 265 247 227 217 211 209 211 208 202 211 209 208 204 186 189 191 203 204
127 113 270 305 347 1 15 353 346 21 348 343 335 334 338 338 334 333 340 346 348 337 330 323 308 279 262 245 223 215 207 210 208 200 205 216 206 213 196 189 190 204 206
202 174 288 308 9 1 341 340 306 310 266 280 314 315 290 290 339 324 332 334 338 331 320 314 318 299 255 258 238 219 210 211 208 202 195 214 208 210 210 196 189 201 207
234 260 299 320 305 271 265 263 264 289 303 289 312 302 252 157 297 343 338 329 324 318 314 311 309 318 288 243 244 231 217 209 210 203 205 199 213 211 212 203 194 197 205
239 259 239 272 252 269 277 292 238 275 262 283 283 310 339 320 34 316 288 305 308 310 316 303 299 306 340 274 232 230 225 216 210 204 205 206 209 211 212 206 201 196 198
254 276 265 231 265 202 265 280 278 254 263 294 215 128 339 310 321 320 302 302 292 299 294 302 299 311 326 321 265 224 211 217 212 205 200 208 202 210 211 208 203 198 195
273 271 232 250 265 270 293 272 268 267 177 288 332 220 209 227 298 312 310 303 293 288 302 296 298 294 308 310 318 235 212 209 207 204 201 200 201 208 209 207 200 197 195
261 241 248 309 298 287 270 273 292 278 224 221 229 265 226 240 235 241 292 307 296 288 287 290 287 280 281 290 296 311 222 205 201 200 195 196 197 206 205 204 200 197 190
252 246 271 254 273 258 259 253 265 260 262 238 238 235 233 273 287 263 282 297 298 297 291 288 279 270 272 269 283 286 313 207 198 193 191 191 195 200 200 201 198 195 191
228 249 230 252 252 252 258 250 265 268 262 240 242 252 228 230 248 254 272 291 297 291 284 278 271 263 266 251 262 292 293 250 196 189 187 187 192 190 195 200 197 192 190
218 231 237 248 254 258 257 264 255 257 249 245 249 239 259 255 242 242 252 293 293 281 282 283 264 252 259 253 253 275 277 291 201 195 185 184 185 178 192 197 196 185 189
228 235 235 255 266 264 257 261 253 258 252 254 253 249 247 254 240 237 236 279 272 284 278 278 274 249 242 237 254 263 264 292 215 189 183 180 176 170 190 194 184 177 180
225 240 260 265 272 268 262 261 264 260 253 252 255 246 254 256 250 241 249 285 268 273 273 264 264 265 254 240 272 282 274 292 216 185 178 175 170 170 181 178 172 168 172
231 244 254 258 258 261 264 264 261 266 253 260 260 257 258 258 249 249 261 278 270 277 272 269 257 258 267 262 277 268 271 272 206 180 174 169 167 167 162 165 166 161 165
236 243 252 257 263 265 262 256 261 277 273 268 262 262 264 262 257 265 268 278 284 279 264 258 245 241 225 223 270 270 270 228 181 180 170 167 164 158 152 153 152 158 159
245 258 251 260 268 268 266 262 256 267 268 263 263 261 265 264 268 270 269 285 282 274 265 225 247 238 207 260 265 287 260 192 176 171 167 164 155 150 149 150 151 155 158
241 252 263 272 270 271 273 273 274 265 262 266 258 255 260 266 270 276 284 297 290 291 264 233 217 224 187 250 251 250 265 158 157 163 166 161 154 152 151 150 153 154 154
245 260 269 281 281 285 287 283 269 257 263 265 265 262 266 268 281 297 304 305 303 298 241 218 200 182 200 238 243 233 224 151 151 156 156 157 151 155 156 151 157 154 156
259 253 273 273 284 289 295 303 304 293 267 267 280 282 273 290 289 298 307 306 301 302 296 223 193 201 234 215 211 232 226 149 153 163 149 152 154 154 151 152 157 159 159
217 262 272 275 276 275 293 304 311 309 313 305 307 303 297 295 305 301 306 308 309 316 311 274 199 193 214 212 239 227 220 154 141 148 146 139 149 143 141 142 153 157 160
233 252 272 270 268 279 296 309 313 335 313 301 297 291 290 292 302 311 306 309 309 306 308 294 203 192 204 186 202 203 164 146 121 150 153 138 151 135 118 131 152 157 159
245 259 251 265 266 274 297 309 315 323 291 284 286 288 281 304 307 313 315 310 307 302 293 271 195 202 191 200 235 189 155 142 144 153 156 112 138 100 92 137 153 157 159
236 251 268 259 274 281 298 306 318 309 294 299 296 278 301 311 314 313 312 313 315 316 318 290 189 207 208 214 214 216 164 160 149 144 167 128 146 129 116 83 145 159 161